This demonstration page uses our WeatherBlox Daily Observations layout. Learn more.

39.01783, -85.05884

Hourly Observations for January 27, 2019

Temp ( °F °C ) Dew Point ( °F °C ) Humidity (%) Winds ( mph kmh ) Pressure ( in mb ) Visibility ( mi km ) Precip ( " mm )
12:52 am 00:52 Cloudy with Light Snow 36 2.2 30 -1.1 79 79 SW 17 28 29.94 1014 6 9.656064 0.01 0.254
1:39 am 01:39 Cloudy with Light Snow 35 1.7 31 -0.6 85 85 SW 13 20 29.97 1015 9 14.484096 0.01 0.254
1:52 am 01:52 Cloudy 35 1.7 31 -0.6 85 85 WSW 14 22 29.91 1013 9 14.484096 0.01 0.254
2:43 am 02:43 Cloudy 35 1.7 31 -0.6 85 85 WSW 12 19 29.97 1015 10 16.09344 0 0
2:52 am 02:52 Cloudy 35 1.7 30 -1.1 82 82 W 9 15 29.94 1014 10 16.09344 0 0
3:52 am 03:52 Cloudy 35 1.7 28 -2.2 76 76 WSW 14 22 29.94 1014 10 16.09344 0 0
4:52 am 04:52 Mostly Cloudy 34 1.1 27 -2.8 76 76 WSW 16 26 29.97 1015 10 16.09344 0 0
5:52 am 05:52 Cloudy 30 -1.1 24 -4.4 79 79 WNW 18 30 30 1016 10 16.09344 0 0
6:52 am 06:52 Cloudy 27 -2.8 19 -7.2 72 72 WNW 14 22 30.03 1017 10 16.09344 0 0
7:52 am 07:52 Cloudy 26 -3.3 17 -8.3 69 69 WNW 16 26 30.09 1019 10 16.09344 0 0
8:52 am 08:52 Cloudy 24 -4.4 16 -8.9 71 71 WNW 14 22 30.09 1019 10 16.09344 0 0
9:52 am 09:52 Cloudy 25 -3.9 17 -8.3 72 72 WNW 15 24 30.09 1019 9 14.484096 0 0
10:52 am 10:52 Cloudy 26 -3.3 17 -8.3 69 69 WNW 14 22 30.12 1020 10 16.09344 0 0
11:52 am 11:52 Partly Cloudy 29 -1.7 17 -8.3 61 61 NW 12 19 30.09 1019 10 16.09344 0 0
12:52 pm 12:52 Mostly Sunny 29 -1.7 16 -8.9 58 58 W 13 20 30.09 1019 10 16.09344 0 0
1:52 pm 13:52 Mostly Sunny 31 -0.6 15 -9.4 52 52 WNW 15 24 30.09 1019 10 16.09344 0 0
2:52 pm 14:52 Mostly Sunny 31 -0.6 15 -9.4 52 52 W 10 17 30.06 1018 10 16.09344 0 0
3:52 pm 15:52 Mostly Sunny 30 -1.1 13 -10.6 49 49 VRB 5 7 30.09 1019 10 16.09344 0 0
4:52 pm 16:52 Sunny 29 -1.7 9 -12.8 43 43 W 9 15 30.09 1019 10 16.09344 0 0
5:52 pm 17:52 Mostly Sunny 26 -3.3 10 -12.2 51 51 NNW 7 11 30.06 1018 10 16.09344 0 0
6:52 pm 18:52 Mostly Clear 25 -3.9 8 -13.3 48 48 Calm 30.06 1018 10 16.09344 0 0
7:52 pm 19:52 Clear 23 -5 9 -12.8 55 55 N 7 11 30.06 1018 10 16.09344 0 0
8:52 pm 20:52 Clear 23 -5 10 -12.2 57 57 ENE 5 7 30.06 1018 10 16.09344 0 0
9:52 pm 21:52 Clear 22 -5.6 12 -11.1 66 66 E 5 7 30.06 1018 10 16.09344 0 0
10:52 pm 22:52 Clear 23 -5 11 -11.7 60 60 ENE 8 13 30.06 1018 10 16.09344 0 0
11:52 pm 23:52 Clear 22 -5.6 11 -11.7 63 63 ESE 7 11 30.03 1017 10 16.09344 0 0

Powered by AerisWeather